Location: Chittendens Corners
(41.2320°N, 81.4940°W)
Time: 08:48:19
(UTC+00:00)

H-2A R/B - Pass Details

Date: 29 October 2020
Orbit: 733 x 837 km, 98.2° (Epoch: 26 November)

Event Time Altitude Azimuth Distance (km) Brightness Sun altitude
Rises 22:58:54 0° 118° (ESE) 3,363 4.9 -7.1°
Reaches altitude 10° 23:02:06 10° 98° (E) 2,444 4.0 -7.7°
Maximum altitude 23:05:22 16° 61° (ENE) 2,031 3.6 -8.3°
Drops below altitude 10° 23:08:38 10° 24° (NNE) 2,459 4.3 -8.9°
Sets 23:11:51 0° 4° (N) 3,394 5.2 -9.5°
